When you browse on this site, cookies collect data to enhance your experience and personalize the content and advertising you see.
Visit our Privacy Policy to learn more. By continuing to use the site, you agree to this use of cookies and data.
  • Em Portugal
  • Lista de países
  • Para 7 dias
  • Temperatura da água
  • Mapas de satélite
  • Mapa do tempo
  • Widgets de tempo
  • user-avatar
    Iniciar Sessão

    Previsão horária em Lozenec

    Hoje, 26 Maio, Domingo

    Tempo Temperatura Precipitação Vento Pressão Humidade
    00:00 +16°C° 0 mm 2 m/s 757 mmHg 86%
    01:00 +16°C° 0 mm 2 m/s 757 mmHg 87%
    02:00 +16°C° 0 mm 2 m/s 758 mmHg 88%
    03:00 +16°C° 0 mm 2 m/s 758 mmHg 87%
    04:00 +14°C° 0 mm 3 m/s 758 mmHg 87%
    05:00 +14°C° 0 mm 3 m/s 758 mmHg 87%
    06:00 +17°C° 0 mm 2 m/s 758 mmHg 80%
    07:00 +20°C° 0 mm 2 m/s 759 mmHg 73%
    08:00 +23°C° 0 mm 2 m/s 759 mmHg 66%
    09:00 +24°C° 0 mm 2 m/s 759 mmHg 61%
    10:00 +26°C° 0 mm 1 m/s 759 mmHg 56%
    11:00 +27°C° 0 mm 1 m/s 759 mmHg 52%
    12:00 +27°C° 0 mm 2 m/s 759 mmHg 52%
    13:00 +27°C° 0 mm 2 m/s 759 mmHg 52%
    14:00 +27°C° 0 mm 3 m/s 759 mmHg 52%
    15:00 +27°C° 0 mm 3 m/s 759 mmHg 55%
    16:00 +26°C° 0 mm 3 m/s 759 mmHg 58%
    17:00 +26°C° 0 mm 3 m/s 759 mmHg 60%
    18:00 +24°C° 0 mm 3 m/s 759 mmHg 67%
    19:00 +21°C° 0 mm 3 m/s 759 mmHg 74%
    20:00 +19°C° 0 mm 2 m/s 759 mmHg 80%
    21:00 +19°C° 0 mm 2 m/s 759 mmHg 83%
    22:00 +18°C° 0 mm 2 m/s 759 mmHg 85%
    23:00 +18°C° 0 mm 2 m/s 760 mmHg 87%

    Amanhã, 27 Maio, Segunda-feira

    Tempo Temperatura Precipitação Vento Pressão Humidade
    00:00 +18°C° 0 mm 2 m/s 760 mmHg 88%
    01:00 +17°C° 0 mm 2 m/s 759 mmHg 89%
    02:00 +17°C° 0 mm 2 m/s 759 mmHg 90%
    03:00 +18°C° 0 mm 1 m/s 759 mmHg 89%
    04:00 +18°C° 0 mm 1 m/s 759 mmHg 89%
    05:00 +18°C° 0 mm 1 m/s 759 mmHg 89%
    06:00 +20°C° 0 mm 1 m/s 759 mmHg 81%
    07:00 +22°C° 0 mm 1 m/s 759 mmHg 73%
    08:00 +24°C° 0 mm 1 m/s 759 mmHg 65%
    09:00 +25°C° 0 mm 2 m/s 759 mmHg 60%
    10:00 +26°C° 0 mm 3 m/s 759 mmHg 55%
    11:00 +26°C° 0 mm 3 m/s 759 mmHg 50%
    12:00 +26°C° 0 mm 4 m/s 759 mmHg 51%
    13:00 +26°C° 0 mm 4 m/s 759 mmHg 52%
    14:00 +26°C° 0 mm 4 m/s 759 mmHg 53%
    15:00 +25°C° 0 mm 4 m/s 758 mmHg 56%
    16:00 +25°C° 0 mm 4 m/s 758 mmHg 59%
    17:00 +23°C° 0 mm 4 m/s 758 mmHg 62%
    18:00 +21°C° 0 mm 3 m/s 758 mmHg 72%
    19:00 +19°C° 0 mm 3 m/s 758 mmHg 82%
    20:00 +17°C° 0 mm 2 m/s 758 mmHg 92%
    21:00 +17°C° 0 mm 2 m/s 758 mmHg 92%
    22:00 +16°C° 0 mm 1 m/s 758 mmHg 92%
    23:00 +16°C° 0 mm 1 m/s 758 mmHg 92%

    Depois de amanhã, 28 Maio, Terça-feira

    Tempo Temperatura Precipitação Vento Pressão Humidade
    00:00 +16°C° 0 mm 1 m/s 758 mmHg 90%
    01:00 +16°C° 0 mm 1 m/s 757 mmHg 88%
    02:00 +16°C° 0 mm 1 m/s 757 mmHg 87%
    03:00 +16°C° 0 mm 1 m/s 757 mmHg 87%
    04:00 +16°C° 0 mm 1 m/s 756 mmHg 88%
    05:00 +16°C° 0 mm 1 m/s 756 mmHg 89%
    06:00 +19°C° 0 mm 1 m/s 756 mmHg 81%
    07:00 +22°C° 0 mm 1 m/s 756 mmHg 74%
    08:00 +24°C° 0 mm 1 m/s 756 mmHg 66%
    09:00 +26°C° 0 mm 2 m/s 756 mmHg 62%
    10:00 +27°C° 0 mm 2 m/s 756 mmHg 58%
    11:00 +29°C° 0 mm 3 m/s 756 mmHg 53%
    12:00 +29°C° 0 mm 3 m/s 755 mmHg 52%
    13:00 +30°C° 0 mm 3 m/s 755 mmHg 51%
    14:00 +30°C° 0 mm 4 m/s 754 mmHg 50%
    15:00 +30°C° 0 mm 4 m/s 754 mmHg 53%
    16:00 +29°C° 0 mm 4 m/s 754 mmHg 55%
    17:00 +29°C° 0 mm 4 m/s 753 mmHg 58%
    18:00 +27°C° 0 mm 4 m/s 753 mmHg 63%
    19:00 +25°C° 0 mm 3 m/s 753 mmHg 68%
    20:00 +22°C° 0 mm 3 m/s 753 mmHg 74%
    21:00 +22°C° 0 mm 3 m/s 754 mmHg 65%
    22:00 +21°C° 0 mm 4 m/s 754 mmHg 57%
    23:00 +21°C° 0 mm 4 m/s 754 mmHg 49%

    29 Maio, Quarta-feira

    Tempo Temperatura Precipitação Vento Pressão Humidade
    00:00 +21°C° 0 mm 4 m/s 754 mmHg 53%
    01:00 +20°C° 0 mm 4 m/s 754 mmHg 58%
    02:00 +20°C° 0 mm 5 m/s 754 mmHg 63%
    03:00 +20°C° 0 mm 4 m/s 754 mmHg 67%
    04:00 +19°C° 0 mm 4 m/s 754 mmHg 72%
    05:00 +19°C° 0 mm 3 m/s 754 mmHg 76%
    06:00 +20°C° 0 mm 3 m/s 754 mmHg 71%
    07:00 +22°C° 0 mm 3 m/s 754 mmHg 66%
    08:00 +25°C° 0 mm 2 m/s 755 mmHg 61%
    09:00 +27°C° 0 mm 2 m/s 755 mmHg 56%
    10:00 +28°C° 0 mm 2 m/s 755 mmHg 51%
    11:00 +30°C° 0 mm 2 m/s 755 mmHg 45%
    12:00 +30°C° 0 mm 2 m/s 755 mmHg 44%
    13:00 +31°C° 0 mm 2 m/s 755 mmHg 43%
    14:00 +31°C° 0 mm 3 m/s 755 mmHg 42%
    15:00 +31°C° 0 mm 3 m/s 754 mmHg 45%
    16:00 +30°C° 0 mm 3 m/s 754 mmHg 48%
    17:00 +30°C° 0 mm 3 m/s 754 mmHg 51%
    18:00 +28°C° 0 mm 3 m/s 755 mmHg 57%
    19:00 +26°C° 0 mm 3 m/s 755 mmHg 62%
    20:00 +22°C° 0 mm 3 m/s 755 mmHg 68%
    21:00 +21°C° 0 mm 3 m/s 755 mmHg 69%
    22:00 +20°C° 0 mm 3 m/s 755 mmHg 70%
    23:00 +19°C° 0 mm 3 m/s 756 mmHg 71%

    30 Maio, Quinta-feira

    Tempo Temperatura Precipitação Vento Pressão Humidade
    00:00 +19°C° 0 mm 3 m/s 756 mmHg 73%
    01:00 +18°C° 0 mm 2 m/s 756 mmHg 75%
    02:00 +18°C° 0 mm 2 m/s 756 mmHg 77%
    03:00 +18°C° 0 mm 2 m/s 756 mmHg 79%
    04:00 +18°C° 0 mm 2 m/s 756 mmHg 80%
    05:00 +18°C° 0 mm 2 m/s 756 mmHg 82%
    06:00 +20°C° 0 mm 2 m/s 756 mmHg 76%
    07:00 +23°C° 0 mm 2 m/s 756 mmHg 70%
    08:00 +25°C° 0 mm 2 m/s 756 mmHg 65%
    09:00 +27°C° 0 mm 2 m/s 757 mmHg 60%
    10:00 +28°C° 0 mm 1 m/s 757 mmHg 56%
    11:00 +30°C° 0 mm 1 m/s 757 mmHg 52%
    12:00 +30°C° 0.1 mm 2 m/s 756 mmHg 52%
    13:00 +30°C° 0.1 mm 2 m/s 756 mmHg 52%
    14:00 +30°C° 0.1 mm 2 m/s 756 mmHg 52%
    15:00 +30°C° 0.2 mm 2 m/s 756 mmHg 55%
    16:00 +29°C° 0.2 mm 2 m/s 756 mmHg 58%
    17:00 +29°C° 0.2 mm 2 m/s 756 mmHg 61%
    18:00 +27°C° 0 mm 1 m/s 756 mmHg 67%
    19:00 +25°C° 0 mm 1 m/s 756 mmHg 73%
    20:00 +23°C° 0 mm 1 m/s 756 mmHg 78%
    21:00 +22°C° 0 mm 1 m/s 757 mmHg 79%
    22:00 +22°C° 0 mm 1 m/s 757 mmHg 79%
    23:00 +22°C° 0 mm 1 m/s 757 mmHg 79%

    31 Maio, Sexta-feira

    Tempo Temperatura Precipitação Vento Pressão Humidade
    00:00 +21°C° 0.1 mm 1 m/s 757 mmHg 80%
    01:00 +20°C° 0.1 mm 2 m/s 757 mmHg 81%
    02:00 +20°C° 0.1 mm 2 m/s 757 mmHg 82%
    03:00 +20°C° 0.2 mm 3 m/s 757 mmHg 84%
    04:00 +19°C° 0.2 mm 3 m/s 757 mmHg 86%
    05:00 +19°C° 0.2 mm 4 m/s 757 mmHg 88%
    06:00 +19°C° 0.3 mm 4 m/s 757 mmHg 86%
    07:00 +20°C° 0.3 mm 5 m/s 758 mmHg 85%
    08:00 +21°C° 0.3 mm 5 m/s 758 mmHg 83%
    09:00 +22°C° 0.2 mm 5 m/s 758 mmHg 78%
    10:00 +23°C° 0.2 mm 5 m/s 758 mmHg 74%
    11:00 +25°C° 0.2 mm 5 m/s 758 mmHg 69%
    12:00 +23°C° 0.2 mm 5 m/s 758 mmHg 74%
    13:00 +22°C° 0.2 mm 5 m/s 758 mmHg 79%
    14:00 +21°C° 0.2 mm 5 m/s 758 mmHg 85%
    15:00 +20°C° 0.7 mm 5 m/s 758 mmHg 88%
    16:00 +20°C° 0.7 mm 6 m/s 758 mmHg 91%
    17:00 +19°C° 0.7 mm 6 m/s 758 mmHg 95%
    18:00 +19°C° 3 mm 6 m/s 758 mmHg 95%
    19:00 +17°C° 3 mm 6 m/s 758 mmHg 96%
    20:00 +17°C° 3 mm 5 m/s 758 mmHg 97%
    21:00 +17°C° 3.3 mm 5 m/s 758 mmHg 97%
    22:00 +16°C° 3.3 mm 5 m/s 758 mmHg 97%
    23:00 +16°C° 3.3 mm 5 m/s 758 mmHg 97%
    Mostrar mais